星链-31116 (STARLINK-31116 )

导读

STARLINK-31116是美国太空探索技术公司Starlink星座的卫星,于2024年2月10日发射入轨,属于SpaceX第二代星链网络组网卫星。该卫星旨在为全球范围内用户提供高速低延迟的互联网覆盖服务,依托星链大规模部署优势,进一步完善全球卫星通信网络布局,服务偏远地区通信以及海事、航空等移动场景网络需求。

基本信息
目录编号:
58947
目录名称:
STARLINK-31116
国际标识:
2024-027S
轨道中心:
EARTH
卫星名称:
星链-31116
卫星全名:
星链-31116 (STARLINK-31116 )
卫星状态:
在轨 (已飞行944 天)
发射日期:
2024-02-10 UTC
国别 :
美国 (US)
星等 :
--
该卫星已列入 空间交会检测服务 Space Conjunction Data Service (SCDS) ,当前飞行风险评估等级: 无高风险
轨道信息
数据来源 国际轨道数据
星历时间: 2026-09-11T11:43:56+0800
15小时前
查看轨道信息
半长轴: 6848.859km
偏心率: 0.0001381
轨道倾角: 53.160°
近地点辐角 84.499°
升交点赤经 166.757°
平近点角 275.617°
近地点: 469.776km
远地点: 471.668km
周期: 94.013分钟
每日圈数: 15.317062
详细信息
固有亮度:
5
最大亮度:
0.3
卫星平台:
Starlink v2.0 mini
覆盖范围:
全球
运营商:
太空探索技术公司
运营商所在国:
美国
制造商(研发单位):
太空探索技术公司
制造商所在国:
美国
使用方式:
暂无
卫星简介
星链(Starlink)计划是由太空探索技术公司(SpaceX)提出的一个巨型低轨卫星互联网星座项目,计划在2019年至2024年间在太空搭建由约1.2万颗卫星组成的“星链”网络,其中1584颗将部署在地球上空550千米处的近地轨道,并从2020年开始工作。该卫星仍在工作。
2D轨道图
3D轨道图
轨道高度分析图
轨道倾角分析图
轨道综合分析图
查看轨道综合分析图
交会数据列表
事件ID 空间交会对象 最接近时刻(TCA) 交会距离 交会风险概率(CRP) 交会风险指数(CRI) 操作
CDM_260912-114805-894706-266122
2026-09-12T
11:48:19+0000
0.830 km
远距离
5.057831E-5 中风险 0.69
CDM_260911-214005-894706-268121
2026-09-11T
21:40:34+0000
1.714 km
极远距离
4.387789E-6 低风险 0.48
CDM_260911-212405-894706-932921
2026-09-11T
21:24:20+0000
2.430 km
极远距离
1.721292E-6 低风险 0.4
CDM_260913-074405-894706-839121
2026-09-13T
07:44:50+0000
2.953 km
极远距离
1.271471E-6 低风险 0.37
与全量物体交会距离演化趋势
与全量物体交会风险概率演化趋势